Home   Weather   Greenville   Past weeks

Flag for USA Past Weather in Greenville, South Carolina, USA — Yesterday and Last 2 Weeks

Now
46 °F

Sunny.


Feels Like: 43 °F
Forecast: 30 / 46 °F
Wind: 6 mph from Northwest

Location: Greenville Downtown Airport

Current Time: Dec 9, 2016 at 2:43:55 pm

Latest Report: Dec 9, 2016 at 1:53 pm


Visibility: 10 mi

Pressure: 30.40 "Hg

Humidity: 27%

Dew Point: 14 °F

Location of GreenvilleLocation

Past Weather in Greenville — Graph

°F

Greenville Temperature Yesterday

Maximum temperature yesterday: 50 °F (at 12:53 am)
Minimum temperature yesterday: 38 °F (at 11:53 pm)
Average temperature yesterday: 47 °F

High & Low Weather Summary for the Past Weeks

 TemperatureHumidityPressure
High76 °F (Nov 24, 1:53 pm)93% (Dec 7, 2:53 am)30.46 "Hg (Dec 7, 2:53 am)
Low31 °F (Dec 9, 6:53 am)16% (Nov 26, 4:53 pm)29.69 "Hg (Nov 30, 3:53 pm)
Average53 °F64%30.07 "Hg
* Reported Nov 24 12:53 pm — Dec 9 12:53 pm, Greenville, Weather by CustomWeather, © 2016

Note: Actual official high and low records may vary slightly from our data, if they occured in-between our weather recording intervals... More about our weather records

Advertising

Greenville Weather History for the Previous 24 Hours

Scroll right to see more
 ConditionsComfort  
Time TempWeatherWind HumidityBarometerVisibility
12:53 pm
Fri, Dec 9
43 °FSunny.3 mph31%30.40 "Hg10 mi
11:53 am42 °FSunny.3 mph32%30.43 "Hg10 mi
10:53 am40 °FSunny.6 mph36%30.46 "Hg10 mi
9:53 am37 °FSunny.8 mph41%30.44 "Hg10 mi
8:53 am34 °FSunny.13 mph46%30.42 "Hg10 mi
7:53 am32 °FSunny.10 mph47%30.40 "Hg10 mi
6:53 am31 °FClear.10 mph47%30.38 "Hg10 mi
5:53 am32 °FClear.8 mph43%30.35 "Hg10 mi
4:53 am32 °FClear.12 mph45%30.33 "Hg10 mi
3:53 am34 °FClear.12 mph42%30.32 "Hg10 mi
2:53 am35 °FClear.8 mph38%30.31 "Hg10 mi
1:53 am36 °FClear.7 mph40%30.29 "Hg10 mi
12:53 am37 °FClear.7 mph41%30.29 "Hg10 mi
11:53 pm
Thu, Dec 8
38 °FClear.9 mph37%30.29 "Hg10 mi
10:53 pm40 °FClear.6 mph32%30.29 "Hg10 mi
9:53 pm41 °FClear.7 mph30%30.28 "Hg10 mi
8:53 pm42 °FClear.7 mph29%30.27 "Hg10 mi
7:53 pm43 °FClear.10 mph29%30.26 "Hg10 mi
6:53 pm44 °FClear.7 mph31%30.24 "Hg10 mi
5:53 pm45 °FClear.8 mph34%30.22 "Hg10 mi
4:53 pm48 °FSunny.8 mph32%30.21 "Hg10 mi
3:53 pm49 °FSunny.9 mph31%30.19 "Hg10 mi
2:53 pm50 °FSunny.10 mph29%30.17 "Hg10 mi
Weather by CustomWeather, © 2016

See weather overviewHow to use our weather pages